SCP
8 7 7 7 7 7 8 9 10 11 11 12 12 12 10 9 9 9 9 8 7 7 6 7 7 7 8 8 8 7 6 5 4 4 4 4 5 4 3 3 3 2 2
9 8 8 7 7 7 7 8 10 12 13 13 14 13 12 11 10 10 9 8 7 7 6 7 7 8 8 8 8 6 5 5 4 4 4 4 4 4 4 4 3 2 2
10 9 8 7 7 6 7 8 9 11 13 14 14 13 12 12 12 11 10 7 6 6 6 6 7 7 7 7 7 6 5 4 5 4 3 3 3 3 3 3 3 2 2
11 10 9 8 7 7 7 8 8 9 10 11 11 11 11 11 11 11 10 7 6 6 5 5 6 7 7 7 7 6 5 6 6 5 3 3 2 2 3 3 3 3 2
12 12 11 9 8 8 8 8 8 8 8 8 9 9 10 9 9 9 8 8 7 7 6 6 6 7 7 7 7 7 6 7 8 6 3 2 2 2 2 2 2 2 2
12 12 13 12 10 9 8 8 9 9 8 8 8 9 9 8 7 6 7 8 9 9 8 7 8 8 8 7 7 6 6 7 8 7 4 2 2 3 3 2 2 2 2
11 11 12 14 13 12 10 9 10 10 10 10 9 9 9 8 6 5 5 7 9 10 10 10 10 10 10 9 6 4 5 6 6 7 6 4 3 3 3 3 2 2 2
10 9 9 11 13 14 13 12 11 11 11 11 11 10 10 8 6 4 4 5 8 10 12 13 14 14 12 10 6 3 3 3 4 5 5 4 3 3 3 3 3 2 2
11 10 9 9 11 13 14 14 13 12 11 11 11 10 9 8 6 4 3 5 7 9 13 16 17 16 12 8 5 3 3 3 2 3 3 3 3 2 3 3 3 2 2
10 10 10 9 10 11 12 13 13 11 11 11 11 10 9 8 6 4 3 5 7 10 13 17 18 15 9 5 3 3 3 3 3 2 2 3 3 3 3 3 3 2 2
9 9 9 10 10 10 10 11 11 10 10 11 11 11 11 9 7 5 4 5 8 10 13 16 15 10 4 2 2 2 3 3 3 3 3 3 4 4 4 3 3 2 2
9 9 9 9 9 10 10 11 11 11 10 11 11 12 12 11 9 6 4 4 7 10 12 12 9 4 1 1 1 1 2 2 3 3 3 3 4 4 4 3 3 3 3
10 9 8 8 9 10 10 10 11 11 11 11 12 12 12 11 9 6 3 2 4 6 8 7 4 2 1 1 1 1 1 2 3 3 3 3 4 4 4 3 3 3 3
11 10 10 10 10 9 8 8 8 8 10 10 10 10 9 7 5 4 3 2 3 4 5 4 3 2 2 2 2 2 2 3 3 4 4 4 4 4 3 3 4 4 4
12 13 13 11 9 7 6 5 4 4 5 6 6 6 5 4 2 2 2 2 3 3 3 4 4 3 3 2 2 2 3 3 4 4 4 4 5 4 3 3 4 4 4
14 14 13 10 7 5 4 3 2 2 1 2 2 2 2 2 1 0 1 1 2 2 2 3 4 4 4 3 3 2 3 3 4 4 4 5 5 4 4 4 4 4 4
12 12 11 9 7 5 4 3 2 1 1 0 0 0 1 0 0 0 0 0 0 0 1 2 3 4 4 4 3 3 3 3 4 4 4 5 5 4 4 4 4 4 4
9 9 9 8 7 6 4 2 2 1 1 1 0 0 0 0 0 0 0 0 0 1 1 2 2 3 3 3 3 3 3 3 4 4 4 5 4 4 3 3 4 4 4
6 7 8 8 8 6 3 2 1 1 1 1 1 1 0 0 0 0 0 1 1 1 1 2 2 2 2 3 3 4 4 4 4 4 5 4 3 3 3 3 4 4 3
5 6 7 8 8 6 3 2 2 1 1 1 2 1 1 1 1 1 1 1 1 2 2 2 2 2 2 2 3 3 4 4 4 4 4 4 3 2 2 3 4 4 3
5 5 6 7 7 5 3 2 1 1 1 2 2 1 1 1 1 1 1 2 2 2 2 2 2 2 2 2 2 3 3 3 3 3 3 3 3 2 2 3 3 3 3
6 6 6 6 5 4 3 2 1 1 1 1 1 1 1 1 1 1 2 2 2 2 2 2 2 2 2 2 2 2 2 2 2 2 3 3 3 2 2 2 2 2 3
6 6 6 5 4 3 2 2 1 1 1 1 1 1 1 1 1 2 2 2 2 2 2 2 2 2 2 2 2 2 2 2 2 2 2 3 2 2 2 2 2 2 2
5 5 5 4 3 2 2 1 1 1 1 1 1 1 1 1 1 1 1 1 1 1 1 1 1 1 2 1 1 1 1 1 1 1 2 1 1 1 1 2 2 2 2
3 3 3 3 2 1 1 1 0 0 0 0 0 1 1 1 1 1 1 1 1 1 1 1 1 1 1 1 1 1 0 0 1 1 1 1 0 0 1 2 2 2 2
2 2 2 2 1 1 1 1 0 0 0 0 1 1 1 1 1 1 1 1 1 1 1 1 1 1 1 1 1 1 0 0 0 0 0 0 0 0 1 2 2 2 2
Wind_Speed
4 4 4 5 5 5 5 4 4 4 3 3 3 4 4 4 4 4 5 4 4 4 4 4 4 3 3 2 2 2 2 2 2 2 1 1 2 2 2 2 3 4 4
2 2 3 3 4 5 5 5 4 4 4 4 4 4 5 5 4 5 5 5 4 5 5 4 4 4 4 3 2 3 2 2 2 3 2 2 2 2 3 3 3 3 3
3 2 2 3 3 4 4 4 4 4 4 4 4 5 5 4 5 5 5 5 5 5 5 4 4 3 4 3 3 3 2 3 2 2 3 2 1 1 1 2 2 2 3
3 3 2 3 3 3 3 3 4 4 4 4 5 4 4 5 5 5 5 5 4 4 4 4 3 3 3 3 3 2 2 2 2 2 2 2 2 2 2 2 2 2 2
2 3 3 2 2 2 3 3 4 4 5 4 4 4 5 5 4 4 4 5 4 4 4 3 3 2 2 2 2 2 2 2 2 2 2 2 2 1 2 2 2 2 2
2 2 2 2 2 2 2 3 3 3 3 3 4 4 4 4 3 3 3 4 4 4 4 3 2 2 2 2 2 2 2 2 2 2 2 2 2 2 2 2 2 2 2
1 1 2 2 3 3 3 2 2 3 3 3 3 3 3 3 3 2 3 3 3 3 3 2 3 2 2 2 1 1 0 2 3 3 3 3 3 3 2 2 3 3 3
1 1 1 2 2 2 2 2 2 2 3 3 3 3 2 2 1 1 2 3 3 2 2 2 2 2 1 1 1 1 1 1 2 2 2 2 2 2 3 4 4 4 3
1 2 2 1 2 2 2 2 2 2 2 3 3 2 2 1 1 1 2 2 2 2 2 2 2 2 1 2 2 1 1 1 1 1 0 1 2 2 2 1 2 2 2
2 2 2 2 2 2 2 2 2 2 2 2 2 2 2 2 2 2 3 2 1 1 1 1 2 2 3 3 3 2 2 2 1 1 1 2 2 3 3 3 3 2 2
2 2 2 2 2 2 2 1 2 2 2 2 2 1 2 2 2 2 2 1 1 2 1 1 1 2 3 3 3 2 3 2 1 2 2 2 1 2 2 2 2 2 2
2 2 2 1 2 1 1 1 2 2 2 2 2 2 2 2 3 3 3 2 2 2 1 1 1 2 2 2 2 2 3 2 2 2 1 1 1 1 1 1 1 1 2
1 1 1 1 1 1 1 1 1 2 2 2 2 2 1 1 2 2 2 2 2 1 1 1 1 3 2 2 4 3 2 2 2 2 2 2 1 1 1 1 1 1 1
2 1 1 1 0 1 1 0 0 1 1 1 1 1 1 1 1 1 1 1 1 0 0 1 1 2 3 3 2 2 2 2 2 2 2 1 1 1 2 2 2 2 1
2 2 1 1 1 1 1 1 1 1 0 0 1 1 0 0 1 2 2 1 0 0 0 1 1 1 1 1 1 2 2 1 1 1 1 1 1 1 1 1 1 1 1
1 1 2 1 1 1 2 1 4 3 3 3 2 1 1 2 2 2 2 1 1 1 1 1 1 1 1 1 1 1 1 1 1 1 1 2 1 1 1 1 1 1 1
1 1 1 1 0 1 1 1 1 1 3 3 2 2 3 2 2 1 1 0 1 1 1 1 1 1 1 1 1 1 0 0 1 1 1 1 1 1 1 1 1 1 1
1 1 1 1 1 1 1 1 1 1 1 1 1 2 3 2 2 2 2 1 1 2 2 1 1 1 0 0 0 0 0 0 1 1 1 1 1 1 1 1 1 1 2
2 1 1 1 1 1 1 1 1 0 0 1 2 2 2 2 1 1 1 1 2 1 1 0 0 0 1 1 1 0 0 1 1 1 1 1 1 1 2 2 1 2 3
1 1 1 1 1 1 1 1 1 0 0 1 1 1 2 1 0 1 1 2 2 1 0 0 0 0 1 1 1 1 0 0 1 1 1 1 1 2 2 3 2 2 2
1 1 2 2 1 1 0 0 1 1 1 0 1 2 2 1 1 1 2 2 2 1 0 0 0 0 0 0 0 1 1 1 1 1 1 1 2 2 2 2 2 2 2
2 1 1 1 0 0 0 1 1 1 1 1 1 2 2 2 1 1 1 1 0 0 0 0 1 0 0 0 0 1 1 1 1 2 2 2 2 2 2 2 2 2 2
3 2 1 0 0 0 1 1 1 1 1 1 0 1 1 1 1 0 1 1 0 0 0 0 0 0 1 1 0 1 1 1 2 2 3 3 3 3 3 3 3 3 3
3 2 2 1 0 0 1 1 1 1 0 0 1 1 1 0 0 1 0 0 0 0 1 1 0 1 2 1 1 1 1 2 3 2 3 4 4 3 3 3 3 3 3
2 2 2 1 1 1 1 1 1 1 1 1 1 1 1 0 1 1 0 0 0 0 0 0 0 0 1 2 1 1 1 1 1 3 3 4 4 4 4 5 4 4 4
2 1 2 1 1 1 1 1 1 1 1 1 1 1 1 1 1 1 1 1 1 0 1 1 1 1 1 0 0 0 0 0 1 3 4 4 4 4 4 4 5 4 4
Wind_Direction
195 204 212 200 204 214 222 233 234 240 242 230 221 217 215 221 223 225 236 233 234 239 243 235 237 247 246 248 252 249 237 230 254 276 267 173 163 181 171 198 198 197 198
183 196 206 206 200 213 221 226 230 229 234 234 224 224 225 224 225 227 235 237 233 237 242 242 242 241 237 247 250 252 244 231 232 258 262 240 229 201 190 219 231 222 208
185 202 205 215 210 217 227 230 230 232 236 237 228 227 231 232 230 232 233 239 239 237 239 242 241 241 243 242 242 246 250 250 228 241 255 250 247 216 198 242 259 246 252
183 197 210 224 232 234 235 234 234 234 235 241 243 239 239 239 237 236 236 239 243 244 242 246 247 243 243 246 242 244 253 249 237 236 245 249 244 223 194 222 255 245 254
184 202 213 221 233 242 242 240 239 238 240 236 242 245 246 246 244 237 240 238 238 247 246 238 233 207 201 227 253 250 247 240 240 238 241 244 248 240 231 243 246 258 256
190 209 207 216 222 236 242 243 245 245 248 242 240 243 247 252 253 225 226 242 235 236 243 237 211 190 181 180 230 254 243 234 237 236 247 242 241 243 243 243 240 247 257
215 220 211 214 221 228 244 242 246 250 244 242 245 242 246 265 275 229 210 232 241 234 232 224 229 196 169 160 168 166 248 260 242 237 244 248 239 231 222 239 250 258 256
256 264 244 238 241 235 232 235 241 252 252 240 244 244 242 259 261 226 224 216 232 228 220 218 206 192 210 155 198 216 220 267 252 214 222 234 234 235 222 222 232 251 254
269 287 286 271 264 251 244 246 241 239 244 243 240 240 241 245 194 194 207 222 218 228 221 209 200 180 191 176 188 191 207 279 346 75 138 231 241 252 239 216 224 220 246
295 302 304 295 278 269 261 253 241 229 231 240 236 224 219 222 195 182 195 217 220 233 224 194 197 195 190 180 199 205 221 244 239 256 275 258 234 226 213 204 211 222 240
313 311 308 295 275 262 259 246 231 229 227 225 231 215 200 185 173 180 195 221 230 238 240 232 207 166 172 185 205 223 233 245 247 245 249 238 219 201 194 195 200 204 221
326 306 303 300 284 285 265 239 226 224 222 210 201 218 206 172 164 176 184 224 238 240 246 233 171 162 176 202 208 233 252 255 241 238 245 244 222 212 205 192 197 206 214
297 289 293 308 328 334 262 238 231 227 231 232 215 214 209 153 134 145 165 213 237 243 269 277 224 205 215 219 214 212 216 223 223 222 233 243 234 202 208 218 213 215 223
288 275 268 260 245 21 7 329 295 295 277 266 253 238 192 117 105 108 131 163 172 212 5 14 328 240 249 238 225 211 214 220 218 228 236 248 237 213 212 209 201 197 195
274 260 243 231 212 133 86 11 350 29 243 216 310 289 217 199 175 160 165 172 153 184 160 225 240 226 194 219 230 228 226 213 218 240 251 253 255 246 250 238 211 200 193
275 283 269 240 204 177 155 95 42 52 73 83 90 109 65 117 144 142 143 149 155 151 156 210 229 234 214 210 225 244 227 212 229 247 262 258 255 250 249 261 255 240 227
296 296 280 284 278 231 189 198 166 90 74 66 79 119 142 143 135 158 169 164 265 173 179 223 235 239 243 210 189 209 218 222 237 241 258 256 254 256 247 238 247 259 245
284 282 269 253 257 253 234 259 253 182 133 107 93 131 138 149 170 190 167 120 236 207 205 210 219 232 224 171 84 0 341 317 267 249 253 254 252 255 252 254 248 267 262
301 284 280 278 269 265 263 263 286 17 89 102 96 100 126 135 157 186 177 215 233 229 201 193 202 335 20 20 10 349 342 321 308 292 275 268 261 254 252 254 255 263 262
292 308 261 257 246 245 236 271 317 352 187 130 124 112 115 138 184 152 197 245 253 247 218 191 138 70 39 6 348 326 307 296 296 290 295 291 276 268 266 264 262 259 258
282 222 202 225 230 257 303 350 320 295 272 162 128 120 150 206 240 222 224 232 243 251 287 49 52 59 72 330 341 312 307 295 296 292 281 273 278 279 273 267 270 266 267
294 273 237 261 263 230 249 274 272 275 305 318 139 144 176 237 260 271 269 248 224 111 348 266 254 268 111 62 350 319 305 299 308 310 300 288 274 270 274 275 277 276 268
273 275 270 248 251 174 248 246 223 217 239 287 278 154 191 253 286 306 319 320 12 107 102 324 312 324 23 48 8 347 326 324 318 309 301 296 290 284 277 270 269 272 273
288 278 273 272 324 296 284 286 277 280 323 324 307 275 225 222 276 298 299 292 320 80 103 106 67 358 355 7 25 28 14 344 327 317 307 295 289 282 279 273 267 267 266
310 321 321 305 294 301 293 287 287 294 299 296 296 299 293 243 268 303 319 174 171 120 66 32 224 283 321 347 4 352 20 2 328 315 289 284 285 286 288 287 282 274 264
301 305 305 297 296 295 291 297 299 318 309 299 298 306 316 307 301 308 309 292 280 235 223 232 264 282 294 340 118 141 158 279 298 300 285 277 281 278 283 282 287 280 276